Temp
53 53 54 53 52 54 53 53 54 54 55 56 56 58 59 61 63 64 65 66 67 67 67 67 67 67 67 67 67 66 66 66 66 67 67 67 66 66 66 66 66 65
51 54 57 55 53 54 52 53 53 53 53 55 56 57 58 60 61 62 63 64 65 66 67 67 67 67 67 67 66 66 66 66 66 67 67 67 66 67 66 66 66 66
50 51 50 50 50 51 51 52 53 52 52 53 55 56 57 59 60 61 61 62 63 64 66 67 67 67 67 67 66 66 66 65 65 67 67 66 67 66 67 67 66 66
51 51 51 51 50 51 51 51 51 52 52 52 53 55 57 58 59 59 59 61 61 63 65 66 66 67 67 67 66 65 66 66 66 67 66 66 67 66 66 67 66 66
52 52 51 51 51 52 51 51 51 51 52 52 53 54 56 56 56 57 58 59 60 61 63 64 66 66 67 66 66 65 65 65 66 66 65 65 66 66 67 67 66 65
51 52 52 52 52 51 50 50 51 51 52 52 52 54 54 55 56 56 57 58 59 60 61 63 64 65 66 66 66 65 66 65 65 65 65 65 66 66 67 66 66 65
52 51 50 51 50 50 50 50 51 53 52 52 54 53 54 54 55 56 57 58 58 60 61 62 63 64 65 65 65 65 65 66 66 65 64 65 66 65 66 66 66 65
52 52 51 50 50 49 50 50 50 50 51 53 52 53 54 54 55 56 57 57 58 59 60 61 62 64 64 65 65 65 65 65 66 66 65 66 65 65 65 66 66 65
51 51 51 50 49 49 49 50 51 50 52 52 52 53 54 55 55 55 56 57 57 58 59 60 61 62 63 64 64 65 65 65 65 66 65 65 65 65 65 66 65 65
50 51 50 50 49 50 50 50 51 51 52 52 52 53 53 54 55 55 56 56 56 57 58 59 61 62 63 64 64 65 65 65 65 65 66 66 65 66 65 65 65 65
50 51 50 50 50 50 50 51 50 51 51 53 52 52 53 53 54 55 55 56 56 57 58 58 60 61 62 63 64 65 65 65 65 66 66 66 66 66 66 65 65 66
51 51 50 51 51 51 51 51 51 51 51 52 53 52 53 53 54 54 55 55 56 57 58 58 60 60 62 62 63 64 64 65 65 64 65 66 66 66 66 66 66 66
51 51 51 51 51 52 52 51 51 51 51 52 53 53 53 53 53 54 54 55 56 56 57 58 59 60 61 62 63 64 64 64 64 64 65 66 67 66 67 67 67 67
52 52 52 52 52 52 52 51 51 51 51 52 53 52 52 52 53 53 54 55 55 56 57 58 58 59 60 61 62 63 63 64 64 64 63 65 66 66 67 67 67 67
52 53 53 53 54 53 52 51 51 51 51 52 52 52 53 53 53 53 53 53 54 55 56 57 57 58 59 60 61 63 63 63 64 64 63 64 65 66 66 67 67 67
52 53 53 53 52 51 51 51 51 51 51 51 51 52 52 53 53 53 53 53 53 54 55 56 56 58 61 59 59 62 63 63 64 64 64 65 65 65 65 66 67 67
52 52 52 52 52 52 51 51 51 51 51 50 51 51 51 52 52 52 52 52 53 53 54 55 56 59 57 52 51 53 59 61 62 64 65 64 64 64 64 65 66 67
51 51 51 51 51 51 52 52 51 51 50 50 50 50 50 51 50 51 51 52 52 53 53 54 55 57 51 51 50 50 53 59 62 63 63 64 65 65 65 65 65 65
51 50 50 50 51 51 51 51 51 50 49 49 49 50 51 50 50 50 50 51 52 52 52 54 55 54 50 50 49 48 48 53 60 62 63 63 64 65 65 65 64 64
50 50 50 50 50 50 50 50 49 49 49 49 50 50 49 49 49 49 50 50 51 52 52 54 55 55 50 50 50 48 47 49 58 60 62 64 64 65 65 65 64 64
49 49 49 49 50 50 49 49 48 48 48 49 49 49 49 49 49 49 50 51 51 52 52 53 55 53 50 49 48 48 47 48 55 59 61 63 64 65 65 65 64 65
48 48 48 49 49 48 48 47 48 48 48 49 50 49 50 50 50 50 50 50 51 52 52 52 54 50 48 48 48 47 46 52 55 57 59 62 63 64 64 64 64 65
49 48 48 48 48 47 47 47 47 48 48 49 48 48 48 48 49 49 51 51 51 52 52 53 54 52 48 48 47 47 48 53 55 56 59 61 63 64 64 63 64 65
49 49 48 48 47 47 47 47 48 48 48 49 47 47 46 48 49 49 50 51 51 52 53 53 54 54 49 48 47 47 50 54 55 56 58 61 62 63 63 63 64 67
49 48 48 47 46 46 46 46 47 47 48 49 48 48 47 48 50 49 50 51 52 52 56 55 55 55 50 48 47 47 50 55 56 57 58 60 61 62 62 62 63 66
48 47 47 46 45 46 46 46 47 47 46 46 46 47 47 48 48 49 48 50 52 53 54 55 55 56 55 48 47 47 47 54 56 57 58 60 61 61 61 62 63 64
MSLP
1013.90 1013.86 1013.74 1013.70 1013.66 1013.54 1013.50 1013.38 1013.30 1013.18 1012.98 1012.74 1012.54 1012.26 1012.06 1011.70 1011.34 1011.06 1010.70 1010.38 1010.18 1010.02 1009.86 1009.78 1009.66 1009.58 1009.46 1009.46 1009.46 1009.54 1009.62 1009.66 1009.66 1009.70 1009.82 1010.06 1010.22 1010.34 1010.58 1010.82 1010.98 1011.10
1013.86 1013.78 1013.62 1013.58 1013.50 1013.34 1013.22 1013.14 1012.98 1012.86 1012.78 1012.58 1012.34 1012.10 1011.82 1011.54 1011.22 1010.90 1010.62 1010.38 1010.10 1009.90 1009.66 1009.54 1009.38 1009.30 1009.22 1009.18 1009.18 1009.26 1009.26 1009.30 1009.38 1009.30 1009.50 1009.66 1009.82 1009.94 1010.06 1010.30 1010.58 1010.70
1013.78 1013.66 1013.66 1013.46 1013.30 1013.10 1012.94 1012.78 1012.70 1012.58 1012.42 1012.22 1012.06 1011.82 1011.62 1011.34 1011.10 1010.86 1010.54 1010.26 1010.02 1009.74 1009.54 1009.30 1009.14 1008.98 1008.90 1008.86 1008.82 1008.86 1008.86 1008.94 1009.06 1008.98 1009.10 1009.22 1009.34 1009.54 1009.62 1009.86 1010.10 1010.30
1013.02 1013.22 1013.26 1013.18 1013.14 1012.98 1012.78 1012.62 1012.38 1012.30 1012.18 1011.98 1011.78 1011.54 1011.34 1011.06 1010.94 1010.78 1010.50 1010.18 1009.98 1009.70 1009.42 1009.18 1008.90 1008.70 1008.58 1008.50 1008.46 1008.42 1008.42 1008.42 1008.46 1008.62 1008.74 1008.78 1008.90 1009.06 1009.26 1009.42 1009.62 1009.90
1012.86 1012.74 1012.74 1012.82 1012.78 1012.78 1012.74 1012.62 1012.34 1012.10 1011.90 1011.66 1011.50 1011.30 1011.02 1010.86 1010.70 1010.54 1010.38 1010.14 1009.90 1009.62 1009.38 1009.06 1008.74 1008.50 1008.30 1008.22 1008.14 1008.10 1008.06 1008.10 1008.10 1008.22 1008.38 1008.50 1008.50 1008.74 1008.86 1009.14 1009.38 1009.62
1012.70 1012.62 1012.50 1012.50 1012.50 1012.50 1012.50 1012.38 1012.22 1012.06 1011.78 1011.46 1011.18 1010.98 1010.82 1010.58 1010.42 1010.26 1010.06 1009.94 1009.74 1009.54 1009.26 1008.98 1008.70 1008.38 1008.14 1007.94 1007.86 1007.74 1007.70 1007.74 1007.70 1007.90 1008.06 1008.06 1008.18 1008.30 1008.50 1008.74 1008.98 1009.30
1012.42 1012.34 1012.14 1012.14 1012.14 1012.10 1012.06 1011.94 1011.82 1011.66 1011.50 1011.30 1011.06 1010.74 1010.50 1010.38 1010.18 1009.94 1009.78 1009.62 1009.50 1009.30 1009.10 1008.86 1008.62 1008.30 1007.94 1007.70 1007.54 1007.42 1007.26 1007.26 1007.30 1007.50 1007.62 1007.66 1007.66 1007.86 1007.98 1008.26 1008.54 1008.78
1012.14 1011.98 1011.94 1011.90 1011.74 1011.58 1011.50 1011.42 1011.38 1011.30 1011.18 1011.06 1010.90 1010.54 1010.30 1010.06 1009.86 1009.62 1009.42 1009.30 1009.18 1008.98 1008.82 1008.58 1008.34 1008.06 1007.74 1007.50 1007.30 1007.14 1006.98 1006.86 1006.90 1007.02 1007.06 1007.06 1007.10 1007.30 1007.50 1007.66 1007.98 1008.38
1012.02 1011.82 1011.58 1011.50 1011.46 1011.30 1011.14 1010.94 1010.82 1010.82 1010.78 1010.70 1010.54 1010.30 1010.06 1009.90 1009.62 1009.38 1009.18 1008.98 1008.82 1008.62 1008.42 1008.26 1008.02 1007.74 1007.46 1007.26 1007.02 1006.78 1006.62 1006.46 1006.42 1006.50 1006.62 1006.74 1006.82 1006.82 1006.90 1007.10 1007.58 1007.90
1011.78 1011.50 1011.34 1011.18 1011.02 1010.78 1010.66 1010.50 1010.38 1010.26 1010.22 1010.22 1010.14 1010.02 1009.78 1009.42 1009.26 1009.10 1008.86 1008.66 1008.42 1008.22 1008.02 1007.86 1007.66 1007.38 1007.10 1006.94 1006.66 1006.42 1006.22 1006.02 1005.94 1005.98 1006.02 1006.18 1006.34 1006.38 1006.50 1006.74 1006.90 1007.34
1011.26 1011.10 1010.94 1010.70 1010.50 1010.26 1010.06 1009.94 1009.94 1009.82 1009.82 1009.74 1009.70 1009.62 1009.38 1009.14 1008.78 1008.58 1008.50 1008.34 1008.14 1007.86 1007.62 1007.42 1007.26 1007.02 1006.78 1006.54 1006.30 1006.06 1005.82 1005.58 1005.42 1005.34 1005.38 1005.54 1005.74 1005.82 1005.94 1006.18 1006.34 1006.62
1010.82 1010.66 1010.50 1010.18 1009.90 1009.70 1009.54 1009.38 1009.34 1009.34 1009.34 1009.30 1009.22 1009.02 1008.86 1008.70 1008.54 1008.26 1008.10 1007.90 1007.74 1007.50 1007.26 1007.02 1006.82 1006.62 1006.38 1006.14 1005.94 1005.66 1005.42 1005.14 1004.98 1004.98 1005.02 1004.86 1005.06 1005.22 1005.46 1005.62 1005.62 1005.94
1010.30 1010.14 1009.94 1009.66 1009.42 1009.14 1009.02 1008.98 1008.90 1008.82 1008.86 1008.78 1008.66 1008.62 1008.50 1008.34 1008.10 1007.94 1007.62 1007.54 1007.30 1007.14 1006.90 1006.62 1006.34 1006.10 1005.90 1005.70 1005.46 1005.22 1005.02 1004.70 1004.50 1004.34 1004.42 1004.30 1004.42 1004.62 1004.74 1004.94 1005.10 1005.34
1009.78 1009.54 1009.34 1009.14 1008.86 1008.66 1008.50 1008.42 1008.38 1008.30 1008.26 1008.18 1008.18 1008.22 1008.10 1007.86 1007.58 1007.34 1007.14 1007.02 1006.86 1006.70 1006.46 1006.26 1005.98 1005.66 1005.46 1005.22 1004.94 1004.74 1004.54 1004.26 1004.02 1003.90 1003.94 1003.82 1003.86 1003.98 1004.14 1004.26 1004.42 1004.70
1009.42 1009.14 1008.90 1008.66 1008.38 1008.14 1007.94 1007.82 1007.70 1007.58 1007.58 1007.66 1007.74 1007.70 1007.50 1007.26 1007.06 1006.90 1006.74 1006.50 1006.34 1006.26 1006.02 1005.78 1005.50 1005.18 1004.90 1004.62 1004.34 1004.14 1003.98 1003.78 1003.58 1003.38 1003.54 1003.42 1003.34 1003.46 1003.62 1003.70 1003.86 1004.10
1009.06 1008.78 1008.50 1008.22 1008.02 1007.78 1007.54 1007.34 1007.18 1007.10 1007.10 1007.18 1007.22 1007.14 1006.98 1006.78 1006.66 1006.46 1006.34 1006.10 1005.86 1005.66 1005.54 1005.26 1004.94 1004.54 1004.06 1003.82 1003.70 1003.62 1003.50 1003.34 1003.14 1002.90 1002.70 1002.66 1002.82 1003.10 1003.30 1003.38 1003.34 1003.54
1008.62 1008.30 1008.06 1007.82 1007.50 1007.30 1007.06 1006.86 1006.70 1006.62 1006.62 1006.62 1006.62 1006.58 1006.46 1006.34 1006.18 1005.98 1005.78 1005.62 1005.42 1005.22 1004.94 1004.66 1004.26 1003.74 1003.42 1003.34 1003.22 1003.18 1003.14 1002.98 1002.78 1002.42 1002.18 1002.10 1002.22 1002.62 1002.94 1003.06 1002.98 1002.98
1008.26 1007.90 1007.58 1007.18 1006.94 1006.70 1006.46 1006.30 1006.18 1006.18 1006.14 1006.10 1006.06 1006.02 1005.90 1005.82 1005.70 1005.46 1005.22 1005.02 1004.86 1004.66 1004.38 1003.98 1003.58 1003.06 1002.94 1002.82 1002.74 1002.62 1002.70 1002.58 1002.30 1001.98 1001.66 1001.50 1001.58 1001.86 1002.06 1002.38 1002.54 1002.70
1007.74 1007.42 1007.06 1006.70 1006.38 1006.10 1005.90 1005.78 1005.66 1005.66 1005.66 1005.66 1005.54 1005.34 1005.30 1005.22 1004.98 1004.82 1004.62 1004.34 1004.22 1004.06 1003.74 1003.26 1002.82 1002.34 1002.30 1002.18 1002.10 1002.02 1002.02 1002.06 1001.78 1001.46 1001.10 1000.82 1000.94 1001.06 1001.38 1001.70 1001.98 1002.34
1007.22 1006.90 1006.50 1006.10 1005.82 1005.66 1005.50 1005.38 1005.34 1005.26 1005.18 1005.10 1004.98 1004.78 1004.70 1004.46 1004.26 1004.18 1003.90 1003.66 1003.42 1003.26 1002.98 1002.50 1002.10 1001.54 1001.54 1001.46 1001.42 1001.38 1001.38 1001.50 1001.42 1001.14 1000.74 1000.34 1000.26 1000.46 1000.86 1001.10 1001.30 1001.54
1006.82 1006.46 1006.14 1005.78 1005.50 1005.34 1005.18 1005.06 1004.98 1004.86 1004.74 1004.54 1004.38 1004.14 1003.90 1003.70 1003.50 1003.34 1003.06 1002.78 1002.54 1002.46 1002.26 1001.74 1001.18 1000.78 1000.82 1000.78 1000.78 1000.86 1000.86 1000.98 1000.90 1000.66 1000.34 999.98 999.78 999.86 1000.22 1000.54 1000.78 1000.98
1006.42 1006.18 1005.78 1005.42 1005.10 1004.86 1004.74 1004.54 1004.38 1004.26 1003.98 1003.70 1003.58 1003.34 1003.06 1002.90 1002.66 1002.54 1002.26 1001.86 1001.62 1001.62 1001.50 1000.94 1000.30 1000.06 1000.10 1000.10 1000.14 1000.30 1000.46 1000.62 1000.54 1000.54 1000.22 999.78 999.46 999.46 999.74 1000.02 1000.30 1000.58
1005.98 1005.70 1005.30 1004.94 1004.66 1004.46 1004.22 1003.98 1003.70 1003.42 1003.22 1003.06 1003.02 1002.66 1002.42 1002.22 1001.90 1001.66 1001.38 1001.02 1000.70 1000.62 1000.42 999.90 999.34 999.14 999.30 999.34 999.38 999.58 1000.02 1000.18 1000.22 1000.18 999.82 999.38 999.02 998.86 999.18 999.78 1000.06 1000.06
1005.46 1005.18 1004.90 1004.50 1004.22 1004.02 1003.70 1003.42 1003.14 1002.94 1002.66 1002.42 1002.38 1001.94 1001.62 1001.30 1001.06 1000.82 1000.42 1000.02 999.78 999.54 999.22 998.90 998.38 998.30 998.54 998.58 998.66 998.86 999.18 999.34 999.54 999.62 999.14 998.78 998.62 998.38 998.58 999.14 999.38 999.50
1005.06 1004.78 1004.50 1004.22 1003.98 1003.70 1003.46 1003.10 1002.70 1002.34 1001.82 1001.66 1001.46 1001.18 1000.74 1000.42 1000.30 999.98 999.46 998.98 998.70 998.42 998.02 997.86 997.50 997.42 997.66 997.70 997.82 997.98 998.30 998.62 998.90 998.86 998.46 998.10 998.06 997.94 998.10 998.54 999.02 999.06
1004.70 1004.46 1004.22 1004.02 1003.70 1003.30 1002.94 1002.58 1002.10 1001.74 1001.34 1001.14 1000.78 1000.50 1000.22 999.78 999.46 999.10 998.62 998.06 997.62 997.30 996.94 996.70 996.58 996.50 996.62 996.74 996.94 997.18 997.46 997.86 997.98 997.94 997.58 997.42 997.42 997.42 997.70 998.06 998.46 998.86
Wind_Speed
3 2 4 4 4 4 4 5 4 3 4 4 5 6 6 7 8 8 9 8 7 7 8 9 9 9 9 9 9 9 9 10 9 9 10 10 10 11 11 12 11 10
4 4 3 3 4 4 5 4 5 5 4 4 5 5 6 7 8 8 9 9 9 8 8 8 9 10 10 9 9 9 9 9 10 7 9 11 10 11 12 12 12 10
3 3 4 4 5 6 6 5 5 5 5 5 5 4 6 6 7 8 9 9 10 9 8 7 8 9 10 10 10 10 10 10 10 9 10 11 10 10 11 11 10 13
6 4 4 4 4 6 6 6 7 6 5 6 5 5 5 6 6 7 9 10 9 10 9 9 8 9 10 10 11 10 11 11 11 10 10 10 11 11 11 10 10 10
6 7 6 5 5 5 5 5 7 7 8 7 6 5 5 6 6 6 7 8 9 10 9 10 9 9 9 9 10 10 10 10 10 11 10 10 10 11 10 10 11 12
7 7 7 6 6 5 5 6 6 7 7 8 9 7 6 6 6 7 7 8 8 9 11 11 10 10 9 10 9 11 12 10 10 11 11 12 11 11 10 10 11 11
10 8 9 7 7 7 6 7 6 6 6 7 7 9 8 7 6 7 7 7 8 9 11 11 11 11 10 9 10 11 12 12 12 11 12 12 12 12 12 12 12 11
11 9 8 7 7 7 7 7 6 6 6 6 7 9 8 9 9 7 7 8 8 9 10 11 12 13 12 10 10 11 13 11 12 13 13 14 12 13 13 12 11 12
10 9 9 8 8 8 8 8 8 7 6 7 7 8 8 8 9 8 8 8 8 9 10 11 12 12 12 11 11 12 13 12 12 13 15 14 12 12 13 13 12 12
10 10 10 10 9 9 9 9 8 7 6 7 8 7 8 8 8 9 8 8 9 9 10 10 12 12 12 12 12 12 12 13 13 14 14 14 14 13 12 12 13 13
11 10 10 11 11 10 10 9 8 7 6 8 8 8 8 8 9 8 8 8 8 10 11 11 12 13 13 13 13 11 12 13 14 14 14 14 15 14 13 13 14 14
12 11 12 13 13 12 12 11 9 7 8 7 8 9 8 8 9 9 8 10 10 10 11 12 12 13 14 14 14 14 12 12 13 12 14 15 15 14 13 12 13 14
12 13 13 13 12 12 11 9 9 9 8 9 8 9 9 9 9 10 9 9 10 11 12 12 13 13 13 13 14 14 14 13 13 14 16 15 14 14 14 14 14 13
13 13 13 14 13 12 11 10 9 9 9 9 8 9 9 10 10 10 10 9 10 11 12 12 13 13 13 14 14 14 13 13 12 13 14 15 15 15 15 15 15 14
13 13 12 13 13 13 12 11 11 10 9 9 8 9 8 9 10 10 11 12 11 11 12 12 12 12 11 12 12 13 13 14 13 14 15 17 16 16 16 15 15 15
13 13 13 13 13 13 13 12 11 10 9 10 10 10 10 9 10 11 11 12 12 12 12 12 12 11 15 20 16 13 12 11 12 14 16 16 16 15 15 16 16 14
13 13 12 14 14 13 13 12 12 11 10 10 10 10 10 10 10 12 12 12 11 12 14 13 12 12 19 18 18 19 15 12 13 14 15 16 15 15 15 16 15 15
13 13 13 14 13 14 13 13 12 12 11 10 10 10 10 10 11 12 13 13 12 12 14 14 14 17 19 19 20 20 16 13 12 13 14 15 15 16 15 15 13 13
13 13 13 13 13 13 13 12 13 12 11 10 11 11 10 11 12 12 13 13 13 13 15 15 15 18 19 20 20 19 17 14 12 13 14 16 16 16 16 15 13 13
13 14 14 13 13 12 12 12 11 12 11 10 9 10 11 12 13 14 14 15 14 14 14 16 16 18 19 20 19 18 16 14 12 14 16 15 15 15 15 15 14 13
13 13 13 13 12 11 11 11 11 10 11 11 10 12 12 12 13 14 13 14 14 13 14 16 16 21 19 19 19 18 17 13 10 12 13 14 14 15 15 14 14 13
12 12 12 12 12 11 11 11 11 12 13 12 10 12 12 12 13 13 15 16 15 14 15 17 17 20 19 19 19 18 16 10 11 13 14 15 14 15 15 12 13 14
11 12 12 12 11 11 12 12 12 13 12 10 11 13 13 13 15 13 13 16 16 15 16 16 17 18 19 19 19 19 13 9 10 11 13 14 14 15 13 11 13 14
12 11 12 12 11 12 12 12 11 10 12 10 12 14 15 15 14 12 14 15 17 17 16 17 16 16 18 18 19 18 15 11 10 10 13 14 14 12 11 12 14 21
11 11 11 11 11 11 11 13 13 13 13 12 13 13 15 13 13 14 16 15 16 17 24 21 17 16 19 20 20 19 15 10 10 10 12 13 13 12 12 12 12 16
10 9 8 9 11 12 12 13 13 13 14 14 14 13 13 13 14 14 17 16 16 16 15 17 17 15 16 20 20 20 19 12 10 10 12 14 13 11 11 12 12 12
Wind_Direction
271 281 291 301 300 296 301 307 297 288 292 299 307 312 313 310 312 307 303 301 289 278 271 258 248 242 235 230 225 223 224 223 220 213 214 214 217 211 212 210 205 201
244 258 284 290 283 290 288 281 294 298 288 273 281 291 300 305 305 308 309 307 303 289 277 269 259 248 238 229 224 225 226 224 224 213 215 215 216 213 214 208 211 206
238 246 246 258 276 284 287 287 288 288 288 283 274 276 290 298 304 310 307 304 302 299 289 271 263 258 249 236 227 224 225 223 223 215 216 217 212 213 214 209 209 209
303 277 266 261 255 272 285 298 299 296 291 291 285 283 287 293 300 301 301 305 303 300 296 284 271 263 257 246 234 226 224 223 220 216 217 218 217 212 212 210 209 206
284 296 292 284 271 263 271 281 293 301 304 297 294 279 285 291 291 291 294 298 301 300 299 293 285 274 261 251 239 234 225 223 222 218 218 217 214 213 212 211 211 210
269 261 267 272 273 261 257 256 261 272 285 300 301 298 283 281 287 288 291 295 295 297 297 295 288 282 270 256 242 235 232 227 220 216 220 217 212 209 212 211 211 208
260 257 257 253 259 257 253 255 255 258 265 269 293 295 299 293 284 284 286 287 293 294 295 294 291 286 278 265 247 237 230 227 230 218 217 219 212 205 206 208 209 208
257 257 254 255 254 265 265 263 254 246 250 264 270 281 293 297 293 290 285 289 290 290 289 288 288 284 281 272 261 246 237 227 224 223 228 226 212 210 203 203 204 208
253 259 260 257 254 255 257 261 262 252 239 252 261 272 277 280 287 289 287 283 283 286 285 285 284 282 279 274 265 256 243 231 222 219 223 225 226 217 204 199 201 205
253 253 257 258 257 255 252 254 256 263 256 253 255 261 273 279 276 279 283 284 282 282 283 283 283 280 279 274 269 263 257 240 227 222 219 220 227 226 217 203 201 206
253 251 252 255 255 255 254 254 251 251 254 256 255 254 262 276 283 284 281 280 282 283 283 283 281 280 279 276 270 266 258 249 235 225 218 217 219 223 218 206 202 203
260 256 253 252 253 255 253 252 252 247 252 257 256 263 267 266 272 283 283 284 281 278 277 278 277 275 276 275 274 271 263 251 238 224 230 220 219 218 213 218 207 204
267 261 256 253 251 250 249 246 243 244 244 252 254 258 262 267 269 273 277 276 278 279 275 274 275 273 272 272 272 271 265 255 242 226 220 219 216 215 212 210 208 205
271 265 260 255 252 250 248 244 241 239 241 247 253 257 258 261 270 275 277 275 274 276 274 272 270 269 269 267 266 264 262 255 242 226 225 223 215 214 213 211 209 204
269 268 265 262 261 260 257 252 246 243 245 248 249 255 256 261 267 272 276 277 272 270 273 269 265 263 262 260 260 261 257 256 246 232 217 222 217 216 213 209 206 204
268 266 265 264 263 259 257 254 250 245 242 244 246 250 256 260 266 267 266 270 274 272 270 269 262 260 257 256 256 261 264 263 255 240 225 217 218 217 216 214 206 202
271 268 265 262 259 259 258 256 253 248 244 243 246 250 255 259 262 267 266 267 266 270 273 267 262 257 257 258 260 257 256 260 258 243 225 219 217 213 217 213 209 202
270 270 268 265 263 261 260 256 254 250 246 244 247 252 253 255 259 260 265 266 266 264 265 265 262 256 253 254 255 256 250 249 253 244 229 220 215 213 212 209 205 200
273 272 270 269 265 263 260 255 251 249 247 246 248 251 257 257 258 261 264 263 261 262 263 262 262 255 250 250 251 252 248 240 247 248 235 219 213 212 211 208 201 201
276 275 274 272 269 265 261 258 254 250 249 249 254 258 257 260 260 258 260 263 260 258 260 262 259 255 249 249 250 250 247 239 241 246 241 225 213 213 212 207 203 193
274 274 273 274 272 268 264 259 253 253 251 251 251 254 257 258 261 261 260 260 259 254 257 258 256 251 246 246 247 246 246 240 240 250 252 236 220 214 209 205 197 193
276 275 274 271 270 265 257 254 250 247 251 252 252 257 256 258 259 256 260 261 257 253 253 254 253 247 243 244 243 240 234 231 233 245 247 239 226 214 209 197 192 195
277 275 275 274 269 265 259 255 253 253 255 254 258 258 260 258 258 256 255 258 256 252 249 248 250 242 237 239 240 236 229 223 226 233 240 237 221 208 195 188 198 198
282 280 277 274 270 263 260 260 260 262 261 255 255 261 260 257 257 255 255 251 251 248 242 244 248 245 237 236 235 231 222 225 222 226 234 232 224 207 188 187 193 196
284 281 275 272 270 267 265 266 264 262 262 261 256 256 259 260 257 254 256 254 248 245 245 244 245 243 232 231 228 224 222 223 223 226 230 228 216 199 189 190 194 196
280 274 273 269 267 268 267 265 268 269 267 265 261 258 258 257 258 254 255 255 249 242 240 242 243 242 232 225 222 222 219 219 221 226 225 220 207 192 183 187 191 194